Location: Bli��� Lhota
(48.7570°N, 14.0120°E)
Time: 04:02:04
(UTC+00:00)

Resurs 01 Rocket - Pass Details

Date: 18 September 2020
Orbit: 633 x 645 km, 98.0° (Epoch: 29 October)

Event Time Altitude Azimuth Distance (km) Brightness Sun altitude
Exits shadow 20:56:49 16° 271° (W) 1,707 4.1 -33.4°
Maximum altitude 20:56:49 16° 271° (W) 1,707 4.1 -33.4°
Drops below altitude 10° 20:59:30 10° 308° (NW) 2,052 5.0 -33.7°
Sets 21:02:35 0° 331° (NNW) 2,967 6.1 -34.0°
